Location: Songkhla
(7.2000°N, 100.6000°E)
Time: 20:26:47
(UTC+07:00)

ISS - Pass Details

Date: 17 April 2026
Orbit: 414 x 424 km, 51.6° (Epoch: 19 May)

Event Time Altitude Azimuth Distance (km) Brightness Sun altitude
Rises 13:11:30 0° 356° (N) 2,366 0.1 76.2°
Maximum altitude 13:15:57 11° 51° (NE) 1,459 -1.0 75.1°
Drops below altitude 10° 13:16:49 10° 66° (ENE) 1,503 -0.9 74.9°
Sets 13:20:23 0° 106° (ESE) 2,367 -0.1 74.1°
